Dewpoint
42 41 40 39 36 36 35 36 36 32 29 28 31 32 31 37 38 39 39 37 38 36
41 41 40 38 37 36 36 35 34 28 26 27 30 31 29 32 35 36 36 36 36 35
41 41 40 38 36 36 35 34 29 26 26 27 28 30 29 30 34 34 35 34 32 34
41 40 40 38 37 36 34 32 28 26 26 25 27 29 28 28 31 32 31 31 30 30
41 41 40 39 38 36 33 30 27 26 25 25 27 28 28 26 29 30 31 30 29 29
41 41 40 39 38 36 33 30 26 25 25 24 26 28 29 27 27 28 30 30 30 28
40 41 41 40 39 37 33 30 26 24 23 23 25 28 28 27 27 27 29 30 30 29
38 41 41 40 39 37 34 31 27 24 22 22 24 27 29 29 28 27 26 29 30 30
36 39 40 40 39 38 35 32 28 25 23 23 23 27 31 31 27 28 27 27 27 26
35 37 38 38 38 37 35 32 29 27 25 24 24 27 31 33 28 27 28 27 27 25
34 35 36 36 36 35 34 32 30 28 25 24 24 27 30 33 31 28 28 27 27 25
33 33 34 34 35 35 33 31 29 27 26 24 24 27 30 33 29 27 29 28 26 25
33 33 33 33 33 34 33 32 30 28 25 25 23 27 30 34 31 30 32 29 25 26
32 32 32 33 33 32 32 31 29 27 26 24 25 25 29 33 34 33 32 30 26 24
Wind_Speed
14 14 14 13 12 12 11 9 6 6 5 5 5 4 4 3 3 4 3 3 2 2
16 16 17 16 12 12 10 9 8 7 6 5 5 4 4 3 3 3 1 1 1 3
19 19 18 15 16 14 13 11 10 9 7 6 6 5 4 3 3 2 1 2 2 1
20 18 17 17 17 16 14 13 13 12 10 9 8 7 6 5 4 5 4 4 5 4
18 16 18 19 19 16 17 14 14 13 11 10 9 9 9 8 7 8 8 8 6 5
16 16 19 20 18 16 17 16 15 14 13 12 11 10 10 9 10 11 12 11 11 10
17 16 17 16 17 17 17 17 16 16 15 13 12 11 12 11 11 10 10 9 10 9
17 13 13 15 16 15 16 17 16 16 15 14 13 13 14 12 11 10 10 9 9 10
16 13 12 13 14 14 16 17 17 19 19 18 14 14 15 11 10 10 10 10 8 7
17 14 13 12 12 15 16 15 19 20 19 20 18 17 18 17 11 11 10 9 8 8
17 16 15 14 14 15 13 15 16 18 18 18 16 17 18 18 12 10 9 9 10 10
17 18 17 18 18 16 13 14 16 15 17 19 18 18 19 18 13 9 7 9 11 10
15 15 17 17 18 13 12 15 14 16 16 19 18 17 19 18 14 11 9 10 10 11
15 17 15 16 14 16 16 14 14 15 14 16 15 15 19 21 13 12 13 10 9 9
Wind_Direction
242 240 242 244 241 242 244 248 249 255 273 285 294 302 324 316 311 320 354 7 34 15
244 239 240 239 237 240 244 245 244 244 260 274 281 285 310 301 303 331 353 32 149 155
242 236 236 236 235 231 235 233 233 236 242 255 259 261 268 268 246 234 202 159 132 134
251 241 238 237 237 235 233 229 229 228 227 231 234 235 237 245 237 221 196 174 174 175
255 244 241 240 238 233 235 232 232 232 232 232 231 227 224 229 218 218 212 206 192 201
269 254 247 244 240 235 234 233 230 229 232 235 235 232 230 228 226 221 218 210 206 204
287 271 263 256 247 240 233 234 232 230 233 234 236 232 230 227 229 231 228 224 222 218
304 282 272 265 258 248 238 235 231 231 231 230 228 227 225 230 237 238 235 230 228 226
319 303 288 283 275 261 250 237 227 229 227 226 223 223 224 222 233 239 240 237 238 248
339 320 307 302 290 274 260 244 236 233 225 229 223 217 219 217 211 219 221 229 244 251
341 333 323 315 302 291 271 253 245 240 231 228 228 220 221 216 193 208 221 224 228 233
335 331 326 318 311 301 282 265 252 241 232 225 227 215 214 212 185 199 219 253 241 232
323 325 320 316 313 304 288 277 261 251 236 230 227 212 211 201 179 196 225 248 248 247
329 328 321 317 310 306 302 294 279 264 250 234 215 212 209 203 179 201 215 222 245 248